Home   Weather   Mount Isa   Past weeks

Flag for Australia Past Weather in Mount Isa, Queensland, Australia — Yesterday and Last 2 Weeks

Now
90 °F

Sunny.


Feels Like: 98 °F
Forecast: 78 / 101 °F
Wind: 5 mph from Southeast

Location: Mount Isa Amo

Current Time: Jan 25, 2017 at 11:32:53 am

Latest Report: Jan 25, 2017 at 10:30 am


Visibility: N/A

Pressure: 29.95 "Hg

Humidity: 59%

Dew Point: 73 °F

Location of Mount IsaLocation

Past Weather in Mount Isa — Graph

°F

Mount Isa Temperature Yesterday

Maximum temperature yesterday: 95 °F (at 4:00 pm)
Minimum temperature yesterday: 73 °F (at 5:30 am)
Average temperature yesterday: 82 °F

High & Low Weather Summary for the Past Weeks

 TemperatureHumidityPressure
High99 °F (Jan 21, 3:00 pm)100% (Jan 11, 8:42 am)29.98 "Hg (Jan 11, 8:42 am)
Low72 °F (Jan 18, 4:30 am)29% (Jan 21, 4:00 pm)29.65 "Hg (Jan 12, 3:30 pm)
Average84 °F72%29.80 "Hg
* Reported Jan 10 10:00 am — Jan 25 10:00 am, Mount Isa, Weather by CustomWeather, © 2017

Note: Actual official high and low records may vary slightly from our data, if they occured in-between our weather recording intervals... More about our weather records

Advertising

Mount Isa Weather History for the Previous 24 Hours

Scroll right to see more
 ConditionsComfort  
Time TempWeatherWind HumidityBarometerVisibility
10:00 am
Wed, Jan 25
88 °FSunny.3 mph62%29.95 "HgN/A
9:30 am84 °FScattered clouds.2 mph66%29.95 "HgN/A
9:00 am82 °FPartly sunny.No wind84%29.95 "HgN/A
8:30 am79 °FSprinkles. More clouds than sun.3 mph94%29.95 "HgN/A
8:00 am77 °FHeavy rain. Broken clouds.9 mph94%29.98 "HgN/A
7:30 am81 °FBroken clouds.6 mph89%29.95 "HgN/A
7:00 am79 °FMostly cloudy.No wind94%29.95 "HgN/A
6:30 am79 °FScattered clouds.No wind89%29.92 "HgN/A
6:00 am79 °FPassing clouds.2 mph94%29.89 "HgN/A
5:30 am79 °FPassing clouds.3 mph94%29.89 "HgN/A
5:00 am79 °FClear.3 mph94%29.89 "HgN/A
4:30 am77 °FClear.No wind94%29.89 "HgN/A
4:00 am77 °FClear.5 mph94%29.89 "HgN/A
3:30 am79 °FClear.3 mph89%29.89 "HgN/A
3:00 am79 °FClear.3 mph84%29.89 "HgN/A
2:30 am79 °FClear.2 mph89%29.89 "HgN/A
2:00 am79 °FPassing clouds.2 mph89%29.89 "HgN/A
1:30 am79 °FPassing clouds.2 mph89%29.89 "HgN/A
1:00 am79 °FClear.5 mph84%29.92 "HgN/A
12:30 am79 °FClear.No wind84%29.92 "HgN/A
12:00 am79 °FClear.3 mph89%29.92 "HgN/A
11:30 pm
Tue, Jan 24
79 °FClear.No wind89%29.92 "HgN/A
11:00 pm81 °FClear.1 mph79%29.92 "HgN/A
10:30 pm81 °FClear.3 mph79%29.92 "HgN/A
10:00 pm81 °FClear.No wind79%29.92 "HgN/A
9:30 pm81 °FClear.No wind79%29.89 "HgN/A
9:00 pm81 °FClear.3 mph79%29.86 "HgN/A
8:30 pm81 °FClear.2 mph74%29.86 "HgN/A
8:00 pm82 °FClear.6 mph70%29.86 "HgN/A
7:30 pm82 °FPartly cloudy.8 mph70%29.86 "HgN/A
7:00 pm84 °FBroken clouds.16 mph66%29.86 "HgN/A
6:30 pm84 °FSprinkles. Scattered clouds.16 mph62%29.83 "HgN/A
6:00 pm86 °FSunny.1 mph66%29.83 "HgN/A
5:30 pm86 °FScattered clouds.14 mph62%29.83 "HgN/A
5:00 pm90 °FScattered clouds.13 mph63%29.80 "HgN/A
4:37 pm88 °FLots of rain. Broken clouds.9 mph62%29.80 "Hg4 mi
4:00 pm95 °FSunny.10 mph47%29.80 "HgN/A
3:30 pm91 °FScattered clouds.8 mph52%29.80 "HgN/A
3:00 pm88 °FLight rain. Broken clouds.10 mph59%29.83 "HgN/A
2:30 pm93 °FScattered clouds.8 mph49%29.83 "HgN/A
2:00 pm91 °FBroken clouds.12 mph52%29.86 "Hg6 mi
1:30 pm91 °FSunny.15 mph56%29.86 "HgN/A
1:00 pm91 °FScattered clouds.16 mph52%29.89 "HgN/A
12:30 pm91 °FScattered clouds.13 mph56%29.89 "HgN/A
12:00 pm90 °FPartly sunny.9 mph55%29.92 "HgN/A
11:30 am88 °FScattered clouds.10 mph59%29.92 "HgN/A
11:00 am88 °FScattered clouds.12 mph62%29.92 "HgN/A
Weather by CustomWeather, © 2017

See weather overviewHow to use our weather pages